Probability
0 0 0 0 0 0 0 0 0 0 0 0 0 0 0 0 0 0 0 0 0 0 0 0 3 3 3 3 3 3 0 0 0 3 3 3 3 3 0 0 0 0 0
0 0 0 0 0 0 0 0 0 0 0 0 0 0 0 0 0 0 0 0 0 0 0 0 0 0 3 3 6 6 3 3 0 0 0 3 3 3 0 0 0 0 0
0 0 0 0 0 0 0 0 0 0 0 0 0 0 0 0 0 0 0 0 0 0 0 0 3 3 0 0 3 3 3 3 0 0 0 0 0 0 0 0 0 0 0
0 0 0 0 0 0 0 0 0 0 0 0 0 0 0 0 0 0 0 0 0 0 0 0 0 3 3 3 3 3 6 3 0 0 0 0 0 0 0 0 0 0 0
0 0 0 0 0 0 0 0 0 0 0 0 0 0 0 0 0 0 0 0 0 0 0 0 0 0 3 3 3 3 6 3 0 0 0 0 0 0 0 0 0 0 0
0 0 0 0 0 0 0 0 0 0 0 0 0 0 0 0 0 0 0 0 0 0 0 0 0 0 0 0 3 3 6 10 6 3 0 0 0 0 0 0 0 0 0
0 0 0 0 0 0 0 0 0 0 0 0 0 0 0 0 0 0 0 0 0 0 0 0 0 0 0 0 0 0 3 6 3 3 0 0 0 0 0 0 0 0 0
0 0 0 0 0 0 0 0 0 0 0 0 0 0 0 0 0 0 0 0 0 0 0 0 0 0 0 0 0 0 0 3 3 3 3 3 0 0 0 0 0 0 0
0 0 0 0 0 0 0 0 0 0 0 0 0 0 0 0 0 0 0 0 0 0 0 0 0 0 0 0 0 0 0 0 0 3 3 0 0 0 0 0 0 0 0
0 0 0 0 0 0 0 0 0 0 0 0 0 0 0 0 0 0 0 0 0 0 0 0 0 0 0 0 0 0 0 0 0 0 0 0 0 0 0 0 0 0 0
0 0 0 0 0 0 0 0 0 0 0 0 0 0 0 0 0 0 0 0 0 0 0 0 0 0 0 0 0 0 0 0 0 0 0 0 0 0 0 0 0 0 0
0 0 0 0 0 0 0 0 0 0 0 0 0 0 0 0 0 0 0 0 0 0 0 0 0 0 0 0 0 0 0 0 0 0 0 0 0 0 0 0 0 0 0
0 0 0 0 0 0 0 0 0 0 0 0 0 0 0 0 0 0 0 0 0 0 0 0 0 0 0 0 0 0 0 0 0 0 0 0 0 0 0 0 0 0 0
0 0 0 0 0 0 0 0 0 0 0 0 0 0 0 0 0 0 0 0 0 0 0 0 0 0 0 0 0 0 0 0 0 0 0 0 0 0 0 0 0 0 0
0 0 0 0 0 0 0 0 0 0 0 0 0 0 0 0 0 0 0 0 0 0 0 0 0 0 0 0 0 0 0 0 0 0 0 0 0 0 0 0 0 0 0
0 0 0 0 0 0 0 0 0 0 0 0 0 0 0 0 0 0 0 0 0 0 0 0 0 0 0 0 0 0 0 0 0 0 0 0 0 0 0 0 0 0 0
0 0 0 0 0 0 0 0 0 0 0 0 0 0 0 0 0 0 0 0 0 0 0 0 0 0 0 0 0 0 0 0 0 0 0 0 0 0 0 0 0 0 0
0 0 0 0 0 0 0 0 0 0 0 0 0 0 0 0 0 0 0 0 0 0 0 0 0 0 0 0 0 0 0 0 0 0 0 0 0 0 0 0 0 0 0
0 0 0 0 0 0 0 0 0 0 0 0 0 0 0 0 0 0 0 0 0 0 0 0 0 0 0 0 0 0 0 0 0 0 0 0 0 0 0 0 0 0 0
0 0 0 0 0 0 0 0 0 0 0 0 0 0 0 0 0 0 0 0 0 0 0 0 0 0 0 0 0 0 0 0 0 0 0 0 0 0 0 0 0 0 0
0 0 0 0 0 0 0 0 0 0 0 0 0 0 0 0 0 0 0 0 0 0 0 0 0 0 0 0 0 0 0 0 0 0 0 0 0 0 0 0 0 0 0
0 0 0 0 0 0 0 0 0 0 0 0 0 0 0 0 0 0 0 0 0 0 0 0 0 0 0 0 0 0 0 0 0 0 0 0 0 0 0 0 0 0 0
0 0 0 0 0 0 0 0 0 0 0 0 0 0 0 0 0 0 0 0 0 0 0 0 0 0 0 0 0 0 0 0 0 0 0 0 0 0 0 0 0 0 0
0 0 0 0 0 0 0 0 0 0 0 0 0 0 0 0 0 0 0 0 0 0 0 0 0 0 0 0 0 0 0 0 0 0 0 0 0 0 0 0 0 0 0
0 0 0 0 0 0 0 0 0 0 0 0 0 0 0 0 0 0 0 0 0 0 0 0 0 0 0 0 0 0 0 0 0 0 0 0 0 0 0 0 0 0 0
0 0 0 0 0 0 0 0 0 0 0 0 0 0 0 0 0 0 0 0 0 0 0 0 0 0 0 0 0 0 0 0 0 0 0 0 0 0 0 0 0 0 0
Height
5827 5828 5829 5830 5831 5832 5833 5833 5834 5834 5835 5835 5835 5835 5835 5835 5834 5834 5833 5833 5832 5831 5830 5829 5827 5826 5824 5822 5821 5819 5817 5815 5813 5811 5809 5807 5804 5802 5800 5797 5795 5793 5790
5821 5822 5823 5824 5825 5825 5826 5827 5827 5828 5828 5829 5829 5829 5829 5829 5828 5828 5827 5826 5826 5825 5824 5823 5821 5820 5818 5816 5815 5813 5811 5809 5807 5805 5802 5800 5798 5795 5793 5791 5788 5786 5783
5815 5815 5816 5817 5818 5818 5819 5820 5820 5821 5821 5822 5822 5822 5822 5822 5822 5821 5821 5820 5819 5818 5817 5816 5815 5813 5812 5810 5808 5806 5804 5802 5800 5798 5795 5793 5791 5788 5786 5784 5781 5778 5776
5807 5809 5809 5810 5811 5811 5812 5812 5813 5813 5814 5814 5815 5815 5815 5815 5815 5815 5814 5813 5812 5811 5810 5809 5808 5806 5805 5803 5801 5799 5797 5794 5792 5790 5788 5785 5783 5781 5778 5775 5773 5770 5768
5800 5801 5802 5803 5803 5804 5804 5805 5805 5806 5806 5807 5807 5807 5808 5808 5807 5807 5806 5806 5805 5804 5803 5801 5800 5798 5797 5795 5793 5791 5789 5787 5784 5782 5780 5777 5775 5772 5769 5767 5764 5761 5759
5792 5793 5794 5795 5796 5796 5796 5796 5797 5797 5798 5798 5799 5799 5800 5800 5799 5799 5798 5797 5797 5796 5794 5793 5792 5790 5788 5787 5785 5782 5780 5778 5775 5773 5771 5768 5765 5763 5760 5757 5755 5752 5749
5784 5785 5786 5787 5787 5788 5788 5788 5788 5789 5789 5790 5790 5791 5791 5791 5791 5790 5789 5789 5788 5787 5786 5784 5783 5781 5780 5778 5775 5773 5771 5768 5766 5764 5761 5758 5755 5753 5750 5747 5744 5742 5739
5775 5776 5777 5778 5779 5779 5780 5779 5780 5780 5781 5781 5781 5781 5782 5783 5782 5781 5780 5779 5778 5777 5776 5775 5773 5772 5770 5768 5766 5764 5761 5759 5756 5753 5751 5748 5745 5742 5739 5737 5734 5731 5728
5766 5767 5769 5769 5770 5770 5770 5770 5770 5771 5771 5771 5771 5772 5772 5773 5773 5773 5772 5770 5769 5768 5767 5765 5763 5762 5760 5758 5756 5754 5751 5748 5746 5743 5740 5737 5734 5731 5728 5726 5723 5720 5718
5757 5758 5759 5760 5760 5761 5761 5761 5761 5761 5761 5761 5761 5761 5761 5761 5762 5763 5763 5761 5760 5758 5757 5755 5754 5751 5749 5747 5745 5743 5740 5737 5735 5732 5729 5726 5723 5720 5717 5715 5712 5709 5706
5747 5748 5749 5750 5751 5751 5751 5751 5751 5752 5751 5751 5751 5751 5751 5751 5750 5751 5752 5752 5750 5748 5746 5745 5743 5740 5738 5736 5734 5731 5729 5726 5724 5720 5717 5715 5712 5709 5706 5703 5700 5697 5694
5737 5737 5738 5740 5740 5740 5741 5741 5741 5741 5741 5740 5740 5740 5739 5739 5740 5739 5739 5740 5739 5738 5736 5733 5731 5729 5727 5724 5722 5720 5717 5714 5712 5709 5706 5703 5700 5697 5694 5691 5688 5685 5682
5726 5727 5728 5728 5729 5730 5730 5730 5730 5729 5729 5729 5728 5728 5728 5728 5728 5727 5727 5727 5727 5726 5724 5722 5720 5718 5715 5713 5710 5708 5705 5703 5700 5697 5694 5691 5688 5685 5682 5679 5675 5672 5669
5715 5716 5717 5717 5718 5718 5719 5718 5718 5718 5717 5717 5716 5716 5716 5716 5715 5715 5714 5714 5714 5714 5713 5711 5708 5706 5704 5701 5698 5696 5693 5691 5688 5685 5682 5679 5676 5673 5669 5665 5662 5659 5656
5704 5705 5706 5706 5706 5706 5706 5706 5706 5706 5705 5704 5704 5704 5703 5703 5702 5702 5701 5700 5700 5700 5700 5699 5696 5694 5692 5689 5687 5684 5681 5678 5675 5672 5669 5667 5663 5660 5656 5652 5648 5645 5642
5692 5693 5693 5694 5694 5694 5694 5694 5693 5693 5692 5692 5691 5691 5690 5690 5689 5689 5688 5687 5686 5686 5686 5686 5684 5681 5679 5677 5674 5671 5668 5665 5663 5660 5656 5654 5650 5646 5642 5638 5634 5631 5628
5680 5681 5681 5682 5682 5682 5682 5681 5680 5680 5679 5679 5679 5678 5677 5676 5676 5675 5674 5673 5673 5673 5672 5673 5671 5668 5666 5664 5662 5659 5656 5653 5650 5647 5643 5640 5636 5632 5628 5624 5620 5617 5614
5668 5668 5669 5670 5670 5669 5669 5668 5668 5667 5666 5666 5665 5665 5664 5663 5662 5661 5661 5660 5660 5659 5659 5659 5658 5656 5654 5652 5650 5647 5644 5640 5637 5634 5630 5626 5622 5618 5614 5610 5606 5603 5600
5656 5657 5657 5657 5657 5657 5656 5656 5655 5655 5654 5653 5653 5652 5651 5650 5649 5648 5648 5647 5646 5646 5645 5645 5644 5643 5641 5639 5637 5635 5631 5628 5624 5620 5616 5612 5608 5604 5600 5596 5592 5589 5586
5645 5645 5646 5645 5645 5645 5645 5644 5643 5642 5642 5641 5640 5639 5639 5638 5637 5636 5635 5634 5633 5632 5632 5631 5631 5630 5628 5626 5624 5622 5619 5615 5611 5607 5603 5598 5594 5590 5586 5583 5579 5576 5573
5633 5634 5633 5633 5633 5633 5633 5632 5632 5631 5630 5629 5628 5627 5627 5626 5625 5624 5623 5622 5621 5620 5618 5617 5617 5616 5615 5613 5611 5609 5606 5603 5599 5595 5591 5586 5582 5578 5573 5569 5566 5562 5559
5622 5622 5622 5622 5622 5622 5621 5620 5620 5619 5618 5618 5617 5616 5615 5614 5612 5611 5610 5609 5608 5607 5606 5605 5604 5603 5602 5600 5598 5595 5592 5590 5588 5584 5579 5574 5569 5565 5561 5557 5553 5550 5547
5611 5611 5610 5611 5610 5610 5609 5609 5608 5608 5607 5606 5605 5604 5602 5601 5600 5599 5598 5597 5595 5594 5593 5592 5591 5590 5589 5587 5586 5583 5579 5576 5573 5569 5566 5562 5557 5553 5549 5545 5541 5538 5535
5600 5600 5599 5599 5599 5598 5598 5597 5597 5596 5595 5595 5593 5592 5591 5589 5588 5587 5586 5585 5583 5582 5580 5579 5579 5578 5576 5574 5572 5569 5567 5564 5560 5555 5551 5550 5546 5542 5538 5533 5529 5526 5523
5589 5589 5588 5587 5587 5586 5586 5586 5586 5585 5584 5583 5582 5580 5579 5578 5577 5575 5574 5573 5572 5570 5567 5566 5565 5564 5563 5561 5558 5556 5554 5551 5548 5544 5540 5537 5535 5532 5528 5523 5518 5515 5512
5578 5578 5577 5576 5576 5575 5575 5575 5574 5574 5574 5573 5571 5569 5567 5566 5565 5563 5562 5561 5560 5558 5556 5554 5553 5551 5550 5548 5546 5544 5541 5538 5535 5533 5529 5526 5523 5519 5518 5514 5509 5505 5502
Wind_Speed
25 25 25 25 25 24 25 25 25 25 25 25 25 25 25 25 25 25 25 24 24 25 25 26 26 27 27 27 27 27 28 28 29 29 29 29 29 29 30 30 31 30 30
27 27 27 27 27 27 27 26 26 26 26 27 27 27 27 27 27 27 27 27 27 27 27 28 28 29 29 30 30 30 30 30 31 31 31 31 31 31 31 32 32 32 32
29 28 28 28 28 28 29 29 29 29 29 29 29 29 29 29 29 29 29 29 29 29 29 30 30 31 32 32 32 32 32 33 33 34 33 33 33 33 33 34 34 34 34
31 31 30 30 30 31 31 31 31 31 31 31 31 31 31 31 31 32 32 31 32 32 32 32 33 33 34 34 34 35 35 36 36 36 36 35 36 36 36 36 36 36 36
33 33 33 33 32 32 33 33 33 33 33 33 33 33 33 33 33 33 34 34 34 34 34 35 35 35 36 36 36 37 37 38 38 38 38 37 37 38 38 38 38 38 37
36 36 35 35 34 34 34 35 35 35 35 35 35 35 35 35 35 35 36 36 36 36 36 37 38 38 38 38 37 38 39 39 40 40 40 39 39 39 40 40 39 39 39
38 37 37 36 35 35 35 36 36 37 36 36 36 36 37 37 37 37 37 37 38 38 38 38 39 39 40 40 39 40 41 41 42 42 42 42 42 42 41 42 41 41 41
39 39 39 38 37 37 37 37 38 38 38 38 38 38 37 38 38 38 38 38 38 39 39 39 39 41 41 42 42 42 43 43 43 43 43 43 44 44 43 43 42 42 42
40 39 39 40 39 38 38 39 39 39 39 39 40 40 40 39 39 39 40 40 40 41 41 41 42 42 43 44 44 44 44 44 44 45 44 45 45 44 44 43 43 44 44
42 42 42 41 41 41 40 40 40 41 42 42 42 43 43 42 42 41 41 41 42 42 42 43 43 44 44 44 45 45 45 45 45 46 46 45 44 44 44 44 45 45 45
44 44 44 43 43 43 43 42 43 44 44 44 44 45 45 45 44 44 44 43 43 44 44 45 45 45 45 45 45 45 45 45 46 46 46 45 45 46 46 46 46 46 47
44 44 45 45 45 45 45 45 45 45 45 46 46 46 46 46 46 47 46 46 46 45 46 46 46 46 46 46 45 45 45 46 46 46 46 46 46 46 46 47 48 48 48
45 46 46 47 47 47 47 47 47 48 47 48 48 47 47 47 48 48 48 48 48 48 48 47 47 47 46 46 46 45 45 46 47 47 46 46 47 47 48 49 49 49 48
46 47 47 47 48 48 48 48 48 49 48 48 47 48 49 49 49 49 50 49 49 49 48 48 47 47 46 46 46 46 47 47 47 46 46 47 47 48 50 50 50 50 49
47 47 48 48 48 48 48 48 48 49 49 48 48 49 49 48 49 49 49 49 50 49 48 48 48 47 47 47 47 47 48 49 48 47 47 48 49 50 51 51 50 50 50
46 47 49 48 49 48 48 48 49 49 49 49 49 50 50 49 50 50 50 50 50 49 49 48 48 48 47 47 48 48 49 49 49 48 48 49 50 51 51 51 50 50 50
45 46 48 48 48 49 49 49 49 49 49 49 50 50 51 51 51 51 52 52 50 50 50 48 48 49 48 48 48 49 50 49 49 49 50 51 51 51 51 51 51 50 49
47 46 47 48 49 49 49 50 50 49 49 49 49 49 50 50 50 51 51 51 51 51 50 49 49 50 50 50 49 49 48 48 50 51 52 52 52 52 52 52 52 50 49
47 47 47 48 48 48 49 49 48 49 49 48 48 48 49 49 49 49 49 49 49 49 50 50 49 50 50 51 51 49 48 48 49 51 51 51 52 52 51 51 50 50 48
46 46 47 47 47 46 47 47 46 47 47 48 48 48 48 47 47 48 48 48 48 48 49 50 50 51 50 51 51 49 48 49 49 50 50 50 50 49 49 49 49 48 47
45 46 46 45 45 45 46 46 45 46 46 46 46 47 46 46 46 47 48 48 48 49 49 50 50 50 51 51 49 50 51 50 50 49 49 49 48 48 49 48 48 47 46
44 45 46 46 45 45 46 46 45 45 45 46 45 45 46 46 47 47 48 48 49 49 49 50 50 50 49 49 49 49 50 50 49 48 48 48 48 48 48 47 47 46 45
44 44 45 45 44 45 45 45 45 45 45 45 44 44 45 46 46 47 48 48 48 47 48 48 49 47 47 48 48 49 49 48 49 48 47 47 47 47 46 45 45 44 43
42 43 44 45 45 45 44 44 43 43 43 43 43 44 44 45 45 46 47 47 47 47 48 48 47 46 45 46 47 47 47 47 47 47 46 45 44 44 44 44 44 43 41
43 44 44 44 44 43 43 43 43 42 41 42 42 44 45 45 46 46 46 46 46 46 47 47 46 45 44 45 46 46 45 45 45 45 45 44 42 42 42 42 41 40 40
42 41 41 41 41 42 42 42 42 42 42 42 43 43 44 44 45 46 46 46 45 45 44 44 43 42 43 44 45 45 45 44 44 43 44 44 43 42 41 40 39 39 38
Wind_Direction
259 259 260 262 263 265 267 268 269 271 272 274 277 278 279 281 281 283 285 286 288 290 292 295 296 296 297 298 300 300 300 300 301 302 302 301 301 301 301 301 300 299 299
259 260 261 262 264 265 266 268 269 270 273 275 276 277 278 279 281 282 284 285 287 288 290 292 294 294 294 295 297 298 298 299 300 300 300 299 299 299 300 300 299 299 298
259 261 261 261 263 266 266 266 268 269 271 273 275 276 277 279 281 282 284 285 286 287 290 291 291 293 293 294 295 296 297 298 298 299 298 298 298 297 298 298 298 298 297
258 261 262 262 263 265 266 266 267 269 270 272 274 275 276 278 280 281 282 284 285 286 288 290 291 292 293 293 294 295 295 296 297 299 297 296 296 296 296 296 296 297 297
259 261 262 263 264 265 267 267 267 269 270 271 272 274 276 278 279 281 282 283 285 286 288 289 291 291 292 292 292 294 295 295 295 296 297 296 295 295 295 295 295 295 295
260 262 263 265 266 266 267 268 268 268 270 271 272 273 275 277 279 280 282 284 285 286 287 289 290 291 291 293 292 293 294 295 295 295 295 295 294 294 295 295 294 294 294
261 262 263 265 267 268 268 269 270 270 271 272 272 274 275 277 278 280 281 283 284 286 287 288 289 290 291 291 292 293 294 295 295 295 295 294 293 294 294 294 294 293 293
261 262 264 266 268 269 270 271 271 271 272 274 274 275 276 277 279 281 282 284 285 286 288 289 289 290 291 291 291 292 293 294 294 294 294 294 293 293 293 293 293 292 292
259 261 262 265 267 269 270 271 271 272 273 274 275 276 277 277 278 280 281 284 286 287 288 289 290 290 290 291 291 292 292 293 293 293 293 293 293 293 292 292 292 292 291
259 261 263 265 266 267 268 270 271 272 273 274 275 276 277 278 278 279 280 283 285 287 287 289 290 289 290 290 290 291 291 292 292 293 293 293 293 293 292 292 292 291 291
259 261 262 264 265 267 268 269 271 272 272 273 275 276 277 278 278 279 280 281 283 285 286 288 289 289 289 290 290 291 291 291 292 293 293 292 292 292 291 292 291 291 291
260 261 262 264 266 267 269 270 271 272 273 273 273 275 276 277 278 279 280 280 282 284 286 287 288 288 289 290 290 290 291 291 292 293 292 292 291 291 292 292 291 291 291
260 261 263 265 267 269 270 270 272 273 273 273 273 274 275 277 277 278 279 280 281 282 284 285 287 288 288 289 289 289 291 292 293 293 292 292 292 292 292 292 291 291 290
261 262 264 266 268 270 271 272 273 274 274 274 274 275 275 276 276 278 278 279 280 281 283 284 286 287 287 288 288 289 291 291 292 292 291 292 292 293 292 291 290 289 289
261 262 265 267 269 271 272 272 273 273 274 274 274 275 276 276 276 277 278 278 279 280 281 283 285 285 286 287 287 289 290 290 291 290 291 292 292 293 293 291 290 289 288
261 263 264 268 269 270 272 273 274 274 273 273 274 274 275 276 275 277 278 279 279 280 281 282 283 285 286 286 288 288 290 289 289 289 291 292 293 293 292 291 290 289 288
263 266 267 268 270 272 272 273 274 274 274 275 275 276 276 276 276 277 278 278 278 279 280 281 283 285 285 286 288 288 289 288 287 289 291 292 294 293 292 290 290 290 289
263 266 268 269 271 273 274 274 274 274 274 275 276 277 277 277 278 277 278 279 279 279 280 281 283 284 284 284 287 287 287 287 288 290 291 292 293 293 291 291 291 290 290
264 266 269 271 272 273 273 274 274 275 275 276 276 277 277 277 277 278 278 280 280 280 280 281 282 283 284 285 286 287 287 288 290 291 292 292 292 292 291 291 291 290 289
265 267 269 270 271 273 273 274 275 276 276 276 276 277 278 278 279 279 279 280 280 281 281 281 281 283 283 285 285 285 287 289 291 292 291 291 292 293 292 292 292 291 288
265 266 268 269 271 272 272 274 275 276 276 276 276 277 277 278 280 280 280 280 280 281 281 280 281 283 284 284 284 285 286 289 291 292 291 291 292 293 293 293 293 291 288
267 267 268 270 271 272 274 274 276 277 277 277 277 278 277 278 279 281 281 280 281 281 280 281 281 282 283 283 284 286 287 288 290 291 290 290 291 292 293 293 293 291 289
268 269 269 270 272 273 273 273 275 276 277 278 278 278 278 279 280 281 282 281 280 279 280 281 282 281 283 283 285 287 288 289 290 290 290 290 291 293 293 293 294 293 291
271 270 271 272 272 273 273 274 275 276 276 277 278 279 279 279 280 280 281 281 279 280 281 281 281 280 282 284 286 287 288 289 290 290 290 292 292 293 293 294 294 292 292
270 272 272 273 273 273 272 274 274 275 276 278 279 280 280 279 280 280 281 280 279 280 281 281 280 280 283 286 288 288 289 290 290 290 290 291 292 293 294 294 293 292 292
271 273 274 275 275 274 274 273 273 274 277 279 281 281 280 280 281 282 281 280 280 280 282 281 281 282 284 286 288 289 290 291 292 292 291 292 293 293 294 293 293 292 291